Weather History for KBJJ - May, 2013

Change the Weather History Date:

Wednesday, May 15, 2013

  Actual Average Record
Temperature  
Mean Temperature 68 °F -  
Max Temperature 84 °F 67 °F 86 °F (1998)
Min Temperature 53 °F 46 °F 37 °F (2000)
Cooling Degree Days 2    
Growing Degree Days 18 (Base 50)    
Moisture  
Dew Point 53 °F    
Average Humidity 59    
Maximum Humidity 83    
Minimum Humidity 34    
Precipitation  
Precipitation 0.00 in - - ()
Sea Level Pressure  
Sea Level Pressure 29.78 in    
Wind  
Wind Speed 8 mph (WSW)    
Max Wind Speed 21 mph    
Max Gust Speed 32 mph    
Visibility 10 miles    
Events Thunderstorm    
Averages and records for this station are not official NWS values.
T = Trace of Precipitation, MM = Missing Value Source: NWS Daily Summary

Daily Weather History Graph

Daily Weather History Graph

Search for Another Location

Airport or City:

Trip Planner

Search our weather history database for the weather conditions in past years. The results will help you decide how hot, cold, wet, or windy it might be!

Date:

Astronomy

May. 15, 2013 Rise Set
Actual Time 6:09 AM EDT 8:38 PM EDT
Civil Twilight 5:38 AM EDT 9:09 PM EDT
Nautical Twilight 4:59 AM EDT 9:48 PM EDT
Astronomical Twilight 4:16 AM EDT 10:32 PM EDT
Moon 10:44 AM EDT (5/15) 12:23 AM EDT (5/15)
Length of Visible Light 15h 31m
Length of Day
14h 28m
Waxing Crescent, 26% of the Moon is Illuminated
May 15
Waxing Crescent
May 18
First Quarter
May 25
Full
May 31
Last Quarter
Jun 8
New

Hourly Weather History & Observations

Time (EDT) Temp. Heat Index Dew Point Humidity Pressure Visibility Wind Dir Wind Speed Gust Speed Precip Events Conditions
12:56 AM 53.1 °F - 44.1 °F 71% 29.84 in 10.0 mi SE 3.5 mph - N/A   Clear
1:56 AM 53.1 °F - 45.0 °F 74% 29.83 in 10.0 mi SSE 3.5 mph - N/A   Clear
2:56 AM 53.1 °F - 45.0 °F 74% 29.81 in 10.0 mi Calm Calm - N/A   Clear
3:56 AM 53.1 °F - 46.0 °F 77% 29.80 in 10.0 mi Calm Calm - N/A   Clear
4:56 AM 54.0 °F - 48.9 °F 83% 29.77 in 10.0 mi South 3.5 mph - N/A   Clear
5:56 AM 59.0 °F - 53.1 °F 81% 29.77 in 10.0 mi South 6.9 mph - N/A   Partly Cloudy
6:56 AM 61.0 °F - 54.0 °F 78% 29.75 in 10.0 mi SSW 9.2 mph - N/A   Clear
7:56 AM 64.0 °F - 55.9 °F 75% 29.75 in 10.0 mi SW 13.8 mph - N/A   Clear
8:56 AM 66.9 °F - 57.0 °F 70% 29.75 in 10.0 mi SW 12.7 mph - N/A   Partly Cloudy
9:56 AM 70.0 °F - 55.0 °F 59% 29.76 in 10.0 mi WSW 10.4 mph - N/A   Clear
10:56 AM 73.0 °F - 55.9 °F 55% 29.75 in 10.0 mi West 13.8 mph - N/A   Clear
11:56 AM 73.9 °F - 55.9 °F 53% 29.76 in 10.0 mi WSW 13.8 mph - N/A   Clear
12:22 PM 75.2 °F - 55.4 °F 50% 29.78 in 10.0 mi West 12.7 mph 19.6 mph N/A Thunderstorm Partly Cloudy
12:37 PM 75.2 °F - 57.2 °F 53% 29.78 in 10.0 mi West 10.4 mph - N/A   Clear
12:56 PM 77.0 °F - 57.0 °F 50% 29.76 in 10.0 mi WSW 12.7 mph - N/A   Clear
1:56 PM 82.0 °F 82.1 °F 59.0 °F 45% 29.75 in 10.0 mi West 12.7 mph 19.6 mph 0.00 in   Clear
2:56 PM 82.0 °F 82.0 °F 57.9 °F 44% 29.78 in 10.0 mi West 20.7 mph 32.2 mph N/A   Clear
3:56 PM 82.9 °F 82.6 °F 57.9 °F 42% 29.77 in 10.0 mi West 17.3 mph 28.8 mph N/A   Clear
4:56 PM 82.9 °F 82.0 °F 55.0 °F 38% 29.75 in 10.0 mi West 20.7 mph 27.6 mph N/A   Clear
5:56 PM 82.9 °F - 52.0 °F 34% 29.75 in 10.0 mi WNW 15.0 mph 23.0 mph N/A   Clear
6:56 PM 81.0 °F - 51.1 °F 35% 29.76 in 10.0 mi WNW 16.1 mph 28.8 mph N/A   Clear
7:56 PM 79.0 °F - 51.1 °F 38% 29.76 in 10.0 mi West 12.7 mph 21.9 mph N/A   Clear
8:56 PM 73.0 °F - 52.0 °F 48% 29.77 in 10.0 mi West 8.1 mph - N/A   Clear
9:56 PM 66.9 °F - 50.0 °F 54% 29.80 in 10.0 mi Calm Calm - N/A   Partly Cloudy
10:56 PM 62.1 °F - 53.1 °F 72% 29.81 in 10.0 mi Calm Calm - N/A   Mostly Cloudy
11:56 PM 63.0 °F - 53.1 °F 70% 29.80 in 10.0 mi Calm Calm - N/A   Scattered Clouds